Hourly Weather Kakaydi

Today, 11 August, Tuesday

Time Temperature Precipitation Wind Pressure Humidity
00:00 +27°C° 0 mm 2 mps 722 mmHg 27%
01:00 +26°C° 0 mm 1 mps 722 mmHg 28%
02:00 +25°C° 0 mm 1 mps 722 mmHg 29%
03:00 +25°C° 0 mm 1 mps 722 mmHg 30%
04:00 +24°C° 0 mm 1 mps 722 mmHg 31%
05:00 +26°C° 0 mm 2 mps 722 mmHg 28%
06:00 +29°C° 0 mm 2 mps 723 mmHg 24%
07:00 +31°C° 0 mm 2 mps 724 mmHg 20%
08:00 +34°C° 0 mm 2 mps 724 mmHg 18%
09:00 +36°C° 0 mm 2 mps 724 mmHg 16%
10:00 +38°C° 0 mm 2 mps 724 mmHg 14%
11:00 +40°C° 0 mm 1 mps 724 mmHg 13%
12:00 +41°C° 0 mm 1 mps 723 mmHg 12%
13:00 +39°C° 0 mm 0 mps 723 mmHg 11%
14:00 +42°C° 0 mm 1 mps 723 mmHg 10%
15:00 +43°C° 0 mm 1 mps 722 mmHg 10%
16:00 +43°C° 0 mm 1 mps 722 mmHg 10%
17:00 +40°C° 0 mm 2 mps 722 mmHg 12%
18:00 +37°C° 0 mm 3 mps 722 mmHg 14%
19:00 +35°C° 0 mm 4 mps 722 mmHg 15%
20:00 +33°C° 0 mm 4 mps 722 mmHg 17%
21:00 +30°C° 0 mm 3 mps 722 mmHg 18%
22:00 +28°C° 0 mm 2 mps 722 mmHg 19%
23:00 +27°C° 0 mm 2 mps 722 mmHg 19%

Tomorrow, 12 August, Wednesday

Time Temperature Precipitation Wind Pressure Humidity
00:00 +27°C° 0 mm 3 mps 722 mmHg 19%
01:00 +26°C° 0 mm 3 mps 722 mmHg 19%
02:00 +25°C° 0 mm 3 mps 722 mmHg 20%
03:00 +24°C° 0 mm 3 mps 722 mmHg 20%
04:00 +22°C° 0 mm 3 mps 722 mmHg 21%
05:00 +25°C° 0 mm 3 mps 722 mmHg 19%
06:00 +27°C° 0 mm 4 mps 723 mmHg 17%
07:00 +28°C° 0 mm 4 mps 723 mmHg 15%
08:00 +30°C° 0 mm 4 mps 723 mmHg 14%
09:00 +34°C° 0 mm 4 mps 723 mmHg 13%
10:00 +36°C° 0 mm 4 mps 724 mmHg 11%
11:00 +38°C° 0 mm 3 mps 723 mmHg 10%
12:00 +39°C° 0 mm 3 mps 723 mmHg 10%
13:00 +42°C° 0 mm 3 mps 723 mmHg 9%
14:00 +42°C° 0 mm 3 mps 723 mmHg 9%
15:00 +42°C° 0 mm 3 mps 723 mmHg 9%
16:00 +43°C° 0 mm 3 mps 722 mmHg 9%
17:00 +39°C° 0 mm 3 mps 722 mmHg 10%
18:00 +36°C° 0 mm 3 mps 722 mmHg 12%
19:00 +34°C° 0 mm 3 mps 722 mmHg 13%
20:00 +31°C° 0 mm 3 mps 722 mmHg 14%
21:00 +29°C° 0 mm 2 mps 722 mmHg 14%
22:00 +27°C° 0 mm 2 mps 722 mmHg 14%
23:00 +26°C° 0 mm 2 mps 722 mmHg 15%

Day after tomorrow, 13 August, Thursday

Time Temperature Precipitation Wind Pressure Humidity
00:00 +25°C° 0 mm 2 mps 722 mmHg 15%
01:00 +25°C° 0 mm 2 mps 722 mmHg 16%
02:00 +24°C° 0 mm 2 mps 721 mmHg 18%
03:00 +23°C° 0 mm 2 mps 721 mmHg 20%
04:00 +22°C° 0 mm 1 mps 721 mmHg 22%
05:00 +25°C° 0 mm 2 mps 722 mmHg 20%
06:00 +27°C° 0 mm 2 mps 722 mmHg 18%
07:00 +30°C° 0 mm 2 mps 723 mmHg 16%
08:00 +33°C° 0 mm 3 mps 723 mmHg 14%
09:00 +36°C° 0 mm 3 mps 723 mmHg 12%
10:00 +38°C° 0 mm 4 mps 723 mmHg 10%
11:00 +41°C° 0 mm 4 mps 723 mmHg 9%
12:00 +42°C° 0 mm 4 mps 722 mmHg 8%
13:00 +43°C° 0 mm 4 mps 722 mmHg 7%
14:00 +44°C° 0 mm 3 mps 722 mmHg 7%
15:00 +44°C° 0 mm 3 mps 721 mmHg 8%
16:00 +44°C° 0 mm 3 mps 721 mmHg 8%
17:00 +40°C° 0 mm 3 mps 721 mmHg 11%
18:00 +38°C° 0 mm 3 mps 721 mmHg 13%
19:00 +35°C° 0 mm 3 mps 721 mmHg 15%
20:00 +33°C° 0 mm 3 mps 720 mmHg 17%
21:00 +30°C° 0 mm 3 mps 720 mmHg 19%
22:00 +29°C° 0 mm 2 mps 720 mmHg 21%
23:00 +28°C° 0 mm 2 mps 720 mmHg 22%

14 August, Friday

Time Temperature Precipitation Wind Pressure Humidity
00:00 +27°C° 0 mm 2 mps 720 mmHg 23%
01:00 +26°C° 0 mm 2 mps 720 mmHg 24%
02:00 +25°C° 0 mm 2 mps 720 mmHg 25%
03:00 +25°C° 0 mm 2 mps 720 mmHg 25%
04:00 +24°C° 0 mm 2 mps 720 mmHg 26%
05:00 +26°C° 0 mm 2 mps 720 mmHg 24%
06:00 +28°C° 0 mm 3 mps 720 mmHg 21%
07:00 +30°C° 0 mm 3 mps 721 mmHg 19%
08:00 +33°C° 0 mm 3 mps 721 mmHg 17%
09:00 +35°C° 0 mm 3 mps 721 mmHg 15%
10:00 +38°C° 0 mm 3 mps 721 mmHg 13%
11:00 +40°C° 0 mm 3 mps 721 mmHg 12%
12:00 +42°C° 0 mm 3 mps 721 mmHg 11%
13:00 +43°C° 0 mm 2 mps 721 mmHg 10%
14:00 +43°C° 0 mm 2 mps 721 mmHg 9%
15:00 +45°C° 0 mm 2 mps 720 mmHg 9%
16:00 +45°C° 0 mm 2 mps 720 mmHg 8%
17:00 +42°C° 0 mm 3 mps 720 mmHg 10%
18:00 +38°C° 0 mm 3 mps 720 mmHg 12%
19:00 +35°C° 0 mm 3 mps 720 mmHg 14%
20:00 +33°C° 0 mm 3 mps 720 mmHg 16%
21:00 +30°C° 0 mm 2 mps 720 mmHg 17%
22:00 +28°C° 0 mm 2 mps 720 mmHg 19%
23:00 +27°C° 0 mm 2 mps 719 mmHg 20%

15 August, Saturday

Time Temperature Precipitation Wind Pressure Humidity
00:00 +26°C° 0 mm 2 mps 719 mmHg 20%
01:00 +26°C° 0 mm 2 mps 719 mmHg 21%
02:00 +25°C° 0 mm 2 mps 719 mmHg 22%
03:00 +24°C° 0 mm 2 mps 719 mmHg 22%
04:00 +23°C° 0 mm 2 mps 719 mmHg 23%
05:00 +25°C° 0 mm 2 mps 719 mmHg 20%
06:00 +28°C° 0 mm 2 mps 720 mmHg 18%
07:00 +30°C° 0 mm 2 mps 720 mmHg 15%
08:00 +34°C° 0 mm 2 mps 720 mmHg 13%
09:00 +36°C° 0 mm 2 mps 720 mmHg 11%
10:00 +39°C° 0 mm 3 mps 721 mmHg 10%
11:00 +40°C° 0 mm 3 mps 720 mmHg 9%
12:00 +42°C° 0 mm 2 mps 720 mmHg 8%
13:00 +43°C° 0 mm 2 mps 720 mmHg 8%
14:00 +45°C° 0 mm 2 mps 720 mmHg 8%
15:00 +45°C° 0 mm 2 mps 719 mmHg 7%
16:00 +45°C° 0 mm 2 mps 719 mmHg 7%
17:00 +41°C° 0 mm 2 mps 719 mmHg 9%
18:00 +37°C° 0 mm 2 mps 719 mmHg 12%
19:00 +34°C° 0 mm 2 mps 719 mmHg 14%
20:00 +31°C° 0 mm 2 mps 719 mmHg 17%
21:00 +29°C° 0 mm 1 mps 719 mmHg 21%
22:00 +28°C° 0 mm 1 mps 719 mmHg 24%
23:00 +28°C° 0 mm 1 mps 718 mmHg 22%

16 August, Sunday

Time Temperature Precipitation Wind Pressure Humidity
00:00 +28°C° 0 mm 1 mps 718 mmHg 20%
01:00 +28°C° 0 mm 1 mps 718 mmHg 18%
02:00 +27°C° 0 mm 1 mps 718 mmHg 18%
03:00 +27°C° 0 mm 1 mps 718 mmHg 18%
04:00 +27°C° 0 mm 2 mps 718 mmHg 18%
05:00 +29°C° 0 mm 2 mps 719 mmHg 16%
06:00 +32°C° 0 mm 2 mps 719 mmHg 14%
07:00 +36°C° 0 mm 2 mps 720 mmHg 12%
08:00 +38°C° 0 mm 2 mps 720 mmHg 11%
09:00 +40°C° 0 mm 3 mps 720 mmHg 9%
10:00 +43°C° 0 mm 4 mps 720 mmHg 8%
11:00 +44°C° 0 mm 4 mps 720 mmHg 8%
12:00 +47°C° 0 mm 4 mps 720 mmHg 7%
13:00 +48°C° 0 mm 5 mps 720 mmHg 7%
14:00 +48°C° 0 mm 4 mps 720 mmHg 7%
15:00 +48°C° 0 mm 4 mps 719 mmHg 7%
16:00 +49°C° 0 mm 4 mps 719 mmHg 7%
17:00 +45°C° 0 mm 4 mps 719 mmHg 9%
18:00 +41°C° 0 mm 4 mps 719 mmHg 10%
19:00 +37°C° 0 mm 3 mps 719 mmHg 12%
20:00 +36°C° 0 mm 3 mps 719 mmHg 14%
21:00 +34°C° 0 mm 2 mps 719 mmHg 16%
22:00 +31°C° 0 mm 2 mps 719 mmHg 18%
23:00 +31°C° 0 mm 2 mps 719 mmHg 19%
Show more